GSE Systems Pre-Tax Profit Margin 2010-2023 | GVP

GSE Systems pre-tax profit margin from 2010 to 2023. Pre-tax profit margin can be defined as earnings before taxes as a portion of total revenue.
GSE Systems Pre-Tax Profit Margin Historical Data
Date TTM Revenue TTM Pre-Tax Income Pre-Tax Margin
2023-09-30 $0.05B $-0.01B -15.22%
2023-06-30 $0.05B $-0.01B -30.43%
2023-03-31 $0.05B $-0.01B -29.79%
2022-12-31 $0.05B $-0.01B -29.17%
2022-09-30 $0.05B $-0.02B -29.41%
2022-06-30 $0.05B $0.01B 11.11%
2022-03-31 $0.06B $0.01B 18.18%
2021-12-31 $0.06B $0.01B 19.64%
2021-09-30 $0.06B $0.01B 21.82%
2021-06-30 $0.05B $-0.00B -1.89%
2021-03-31 $0.05B $-0.01B -11.32%
2020-12-31 $0.06B $-0.01B -17.24%
2020-09-30 $0.06B $-0.01B -14.52%
2020-06-30 $0.07B $-0.01B -13.04%
2020-03-31 $0.08B $-0.01B -8.97%
2019-12-31 $0.08B $-0.01B -8.54%
2019-09-30 $0.09B $-0.01B -5.68%
2019-06-30 $0.09B $-0.00B -4.44%
2019-03-31 $0.09B $-0.00B -3.26%
2018-12-31 $0.09B $0.00B 2.15%
2018-09-30 $0.09B 0 0.00%
2018-06-30 $0.09B $-0.00B -1.18%
2018-03-31 $0.08B $-0.00B -1.30%
2017-12-31 $0.07B 0 0.00%
2017-09-30 $0.06B $0.00B 1.64%
2017-06-30 $0.06B $0.00B 3.33%
2017-03-31 $0.06B $0.00B 1.82%
2016-12-31 $0.05B $0.00B 1.92%
2016-09-30 $0.05B $0.00B 1.89%
2016-06-30 $0.05B $-0.00B -5.56%
2016-03-31 $0.06B $-0.00B -7.14%
2015-12-31 $0.06B $-0.00B -7.02%
2015-09-30 $0.06B $-0.01B -10.71%
2015-06-30 $0.05B $-0.00B -8.16%
2015-03-31 $0.04B $-0.01B -11.63%
2014-12-31 $0.04B $-0.01B -18.42%
2014-09-30 $0.04B $-0.01B -16.22%
2014-06-30 $0.04B $-0.01B -12.20%
2014-03-31 $0.04B $-0.01B -25.00%
2013-12-31 $0.05B $-0.01B -21.28%
2013-09-30 $0.05B $-0.01B -22.92%
2013-06-30 $0.05B $-0.01B -18.37%
2013-03-31 $0.05B $-0.00B -1.96%
2012-12-31 $0.05B $0.00B 1.92%
2012-09-30 $0.05B $0.00B 5.56%
2012-06-30 $0.05B $0.00B 5.56%
2012-03-31 $0.05B $0.00B 5.77%
2011-12-31 $0.05B $0.00B 3.92%
2011-09-30 $0.05B $-0.00B -2.08%
2011-06-30 $0.05B $-0.00B -4.26%
2011-03-31 $0.05B $-0.00B -4.17%
2010-12-31 $0.05B $-0.00B -4.26%
2010-09-30 $0.05B $-0.00B -4.35%
2010-06-30 $0.04B $-0.00B -2.27%
2010-03-31 $0.04B 0 0.00%
2009-12-31 $0.04B 0 0.00%
Sector Industry Market Cap Revenue
Computer and Technology Computer Software $0.010B $0.045B
GSE Systems, Inc. develops and delivers business and technology solutions by applying process control and simulation software, systems and services to the pharmaceutical and chemical research & development, energy, process and manufacturing industries worldwide. The company's products are used in the following industries: specialty chemical, food and beverage, petroleum refining, pharmaceutical, fossil and nuclear power generation, metals and water treatment. (PRESS RELEASE)
Stock Name Country Market Cap PE Ratio
Microsoft (MSFT) United States $3134.901B 38.15
Oracle (ORCL) United States $332.871B 27.09
Salesforce (CRM) United States $285.490B 47.62
Adobe (ADBE) United States $212.392B 35.51
Intuit (INTU) United States $173.911B 58.32
Synopsys (SNPS) United States $84.967B 61.29
Cadence Design Systems (CDNS) United States $83.264B 75.89
Dassault Systemes SA (DASTY) France $55.545B 36.40
Autodesk (ADSK) United States $50.690B 49.89
ANSYS (ANSS) United States $29.176B 49.22
MicroStrategy (MSTR) United States $25.106B 50.02
PTC (PTC) United States $21.527B 63.40
SS&C Technologies Holdings (SSNC) United States $15.324B 15.09
Manhattan Associates (MANH) United States $14.641B 84.33
Open Text (OTEX) Canada $9.681B 10.39
Descartes Systems Group (DSGX) Canada $7.550B 66.20
Trend Micro (TMICY) Japan $7.360B 65.30
Pegasystems (PEGA) United States $5.067B 69.41
CommVault Systems (CVLT) United States $4.224B 75.38
Blackbaud (BLKB) United States $4.103B 36.71
ACI Worldwide (ACIW) United States $3.405B 17.49
Progress Software (PRGS) United States $2.237B 14.01
Verint Systems (VRNT) United States $1.906B 17.59
BlackBerry (BB) Canada $1.797B 0.00
Sapiens (SPNS) Israel $1.693B 23.99
PROS Holdings (PRO) United States $1.679B 0.00
Simulations Plus (SLP) United States $0.930B 68.41
Magic Software Enterprises (MGIC) Israel $0.576B 11.86
Rand Worldwide (RWWI) United States $0.573B 0.00
American Software (AMSWA) United States $0.374B 31.25
Canaan (CAN) China $0.280B 0.00
OptimizeRx (OPRX) United States $0.195B 0.00
Rigetti Computing (RGTI) United States $0.187B 0.00
Icad Inc (ICAD) United States $0.045B 0.00
NetSol Technologies (NTWK) United States $0.031B 0.00
Hanryu Holdings (HRYU) South Korea $0.026B 0.00
Neonode (NEON) Sweden $0.023B 0.00
Smith Micro Software (SMSI) United States $0.021B 0.00
Wetouch Technology (WETH) $0.020B 0.00
SAP SE (SAP) Germany $0.000B 47.70